Location: Killam
(52.7910°N, 111.8608°W)
Time: 23:08:32
(UTC+00:00)

Vanguard 3 - Pass Details

Date: 19 February 2026
Orbit: 507 x 3205 km, 33.4° (Epoch: 11 March)

Event Time Altitude Azimuth Distance (km) Brightness Sun altitude
Rises 00:05:03 0° 228° (SW) 5,194 13.1 4.9°
Reaches altitude 10° 00:11:01 10° 207° (SSW) 3,535 11.4 4.1°
Maximum altitude 00:14:53 14° 180° (S) 2,809 10.3 3.5°
Drops below altitude 10° 00:18:02 10° 151° (SSE) 2,728 9.8 3.1°
Sets 00:21:33 0° 125° (SE) 3,283 9.9 2.6°
